Starlink 5813

operational
NORAD ID: 55790 Int'l Des: 2023-028 Owner: SPXS Country: US Constellation: starlink
LEOCIRCULAR

关于 Starlink 5813

正在加载描述...

实时位置

正在加载3D地球...

即将过境

高度历史

Altitude vs Time

uPlot chart will show altitude changes over time

两行轨道根数

1 55790U 23028BB 26062.46060025 .00001047 00000-0 95521-4 0 9998
2 55790 69.9991 220.1391 0003093 268.7984 91.2821 14.98327948166098
Epoch: Mar 3, 2026 • Age: 35 hours

当前状态

高度 577.3 km
速度 7.57 km/s
星下点 33.80°N, 99.34°W
发射日期 Mar 3, 2023
运行时间 3 years
类型 internet

技术详情

分类 Payload
质量 305.00 kg
干质量 290.00 kg
总质量 305.00 kg
长度 0.20 m
直径 2.80 m
跨度 9.00 m
形状 Box + pan
制造商 SPXS
平台类型 Starlink
阶段状态 In Orbit
所有者/国家 SPXS/US

大型星座

Loading constellations...